GFSSE_700_temp_003.txt.gz
Temp
10 9 9 9 9 9 9 9 9 9 9 9 9 9 8 8 8 8 8 8 8 8 8 8 8 8 8 8 8 8 8 8 8 8 8 8 9 8 8 8 8 8 8
9 9 9 9 9 9 9 9 9 9 9 8 9 9 8 8 8 8 8 8 8 8 8 8 8 8 8 8 8 8 8 8 8 8 8 8 8 9 8 8 9 8 8
9 9 9 9 8 8 9 9 9 8 8 9 9 8 8 8 8 8 8 8 8 8 8 8 8 8 8 8 8 8 8 8 8 8 8 9 8 8 9 8 8 8 8
9 9 9 9 9 9 9 8 8 9 9 9 9 8 8 8 8 8 8 8 7 8 8 8 8 8 8 8 8 8 8 8 8 8 8 8 9 9 9 9 9 8 8
9 9 9 9 9 9 9 9 9 9 9 9 9 9 8 8 8 8 8 8 7 8 8 8 8 8 8 8 8 8 8 8 8 8 8 8 9 9 8 8 9 8 8
9 9 9 9 9 9 9 9 9 9 9 8 9 9 8 8 8 7 7 7 7 8 8 8 8 8 8 8 8 8 8 8 8 8 8 8 9 9 9 9 8 8 8
10 10 9 9 9 9 9 9 9 9 9 9 9 8 8 8 8 8 8 7 7 8 8 8 8 8 8 8 8 8 9 8 8 8 8 8 9 9 9 8 8 8 9
10 10 9 9 10 9 9 9 9 9 9 9 9 8 8 8 8 7 7 7 7 7 8 8 8 8 8 8 8 8 8 8 8 8 8 8 9 9 9 9 8 8 8
10 10 9 9 9 9 9 9 9 9 9 8 8 8 8 8 8 7 7 8 7 8 8 8 8 8 8 8 8 8 8 9 8 8 8 8 9 9 9 9 9 8 8
9 10 9 9 9 9 9 9 9 9 8 8 8 8 8 8 7 8 7 8 8 8 8 8 8 8 8 8 8 8 8 8 9 9 8 8 8 8 9 9 9 8 8
10 10 9 9 9 9 9 9 9 9 9 8 8 8 8 7 7 7 7 7 7 8 8 8 8 8 8 8 8 8 8 8 8 8 8 8 8 8 9 8 8 9 8
11 10 10 9 9 9 9 9 9 9 9 8 8 8 8 8 8 8 8 8 8 8 8 8 8 8 8 8 8 8 8 7 7 8 8 8 8 8 8 8 8 8 8
11 10 10 10 9 9 9 9 9 9 9 8 8 8 8 8 8 8 8 8 8 8 8 8 8 8 8 8 8 8 8 8 7 7 7 8 8 8 8 8 8 8 8
11 10 10 10 10 9 9 9 9 9 9 8 8 8 8 8 8 8 8 8 8 8 8 8 8 8 8 8 7 7 7 7 7 7 7 7 8 8 8 8 8 8 8
11 11 11 10 10 10 9 9 9 9 9 9 9 8 8 8 8 8 8 8 8 8 8 8 8 8 8 8 8 7 7 7 7 8 7 8 7 8 8 8 8 8 8
12 12 11 10 10 10 9 9 9 9 9 9 9 8 8 8 8 8 8 8 8 8 8 8 8 8 8 8 8 8 8 8 8 8 8 8 8 7 8 8 8 8 8
12 11 11 10 10 10 10 9 9 9 9 9 9 8 9 8 9 8 8 8 8 8 8 8 8 8 8 8 8 8 9 9 9 9 9 8 8 8 7 8 8 8 8
12 12 11 10 10 9 10 9 9 9 9 9 9 9 9 9 9 8 8 8 9 9 8 8 8 9 9 9 9 9 9 9 9 9 9 9 9 8 8 8 8 8 7
13 12 12 11 10 10 10 10 10 10 9 9 9 9 9 9 9 9 8 9 9 8 8 9 9 9 10 9 9 10 10 9 9 9 8 8 8 8 8 8 8 7 7
13 13 12 12 11 10 10 10 10 10 9 9 9 9 9 9 9 9 9 9 9 8 8 10 10 10 10 10 9 9 9 9 9 9 9 8 8 8 8 8 8 7 7
13 13 12 12 11 11 10 10 10 10 10 9 9 9 9 9 9 9 9 9 9 9 10 10 10 10 10 10 9 9 8 8 8 9 9 9 8 8 8 7 7 8 7
13 12 12 12 11 11 10 10 11 11 11 11 11 10 10 10 10 9 10 10 10 10 10 10 9 9 9 9 9 8 7 7 8 8 8 8 8 8 8 8 7 7 7
13 13 12 12 11 11 11 11 11 11 11 11 11 10 10 10 10 10 10 10 10 10 10 9 9 9 8 8 8 8 8 7 7 7 6 7 7 7 7 7 7 7 7
13 12 12 12 12 11 11 11 11 11 11 10 10 10 10 10 10 11 10 10 10 10 10 9 9 9 8 8 8 8 7 7 7 6 6 5 6 6 7 7 7 7 6
13 13 13 12 12 12 12 11 11 11 11 11 11 11 11 11 10 11 11 11 10 10 10 10 9 8 8 7 8 8 7 7 7 7 6 6 6 6 6 6 6 7 7
14 14 13 13 13 12 12 12 11 11 11 11 11 11 11 10 10 10 10 10 10 10 10 9 9 8 8 7 7 7 7 7 6 7 6 6 6 5 5 5 5 5 6

GFSSE_700_temp_006.txt.gz
Temp
9 9 8 8 8 8 8 9 9 9 9 9 9 8 8 8 8 8 8 8 8 8 8 8 8 8 9 9 8 8 8 8 8 9 9 8 8 8 8 8 7 8 8
9 9 9 9 9 9 9 9 9 9 9 9 8 8 8 8 8 8 8 8 8 8 8 8 8 8 8 8 8 8 8 8 8 8 9 8 8 8 8 8 8 7 8
9 9 9 9 9 9 9 9 9 9 9 9 9 8 8 8 8 8 8 8 8 8 8 8 8 8 8 8 8 8 8 8 8 8 8 8 8 8 8 7 8 7 7
9 9 9 9 9 9 9 9 9 9 9 9 9 8 8 8 8 8 8 8 8 8 8 8 8 8 8 8 8 8 8 8 8 8 9 8 8 8 8 8 8 8 8
10 9 9 9 9 9 9 9 9 9 9 9 9 8 8 8 8 8 8 8 8 8 8 8 8 8 8 8 9 9 8 8 8 8 8 8 8 9 8 8 8 8 8
9 9 9 9 9 9 9 9 9 9 9 9 9 9 8 8 8 8 8 8 8 8 8 8 8 8 8 8 9 9 9 8 8 8 8 8 8 9 9 8 8 8 8
10 10 9 9 9 9 9 9 9 9 9 9 9 9 8 8 8 8 8 8 8 8 8 8 8 8 8 8 9 9 9 9 8 8 8 8 9 8 9 8 8 8 8
10 9 9 9 9 9 9 9 9 9 9 9 9 8 8 8 8 8 8 8 8 8 8 8 8 8 9 8 8 9 9 9 9 8 8 8 8 9 9 9 8 8 8
10 10 9 9 9 9 9 9 9 9 9 9 9 8 8 8 8 8 8 8 8 8 8 8 8 8 8 8 8 8 8 9 9 8 8 8 8 9 9 9 8 8 8
10 10 9 9 10 10 9 9 9 9 9 9 8 8 8 8 8 8 8 8 8 8 8 8 8 8 8 8 8 8 8 8 8 9 8 8 8 8 9 9 9 8 8
10 10 10 10 10 10 9 9 9 9 9 9 8 8 8 8 8 8 8 8 8 8 8 8 8 8 8 8 8 8 8 8 8 8 8 8 8 8 9 8 9 9 8
10 10 10 10 10 9 9 9 9 9 9 9 9 8 8 8 8 8 8 8 8 8 8 8 8 8 8 8 8 8 8 8 8 8 8 8 8 8 8 9 9 9 9
10 10 10 10 10 10 10 10 9 9 9 9 8 8 8 8 8 8 8 8 8 8 8 8 8 8 8 8 8 8 8 8 7 8 7 8 8 8 8 8 9 9 9
11 11 10 10 10 10 10 9 9 9 9 9 8 8 9 9 9 8 8 8 8 8 8 8 8 8 8 8 8 7 7 7 7 7 8 8 8 8 8 8 8 8 9
11 11 11 11 10 10 10 10 9 9 9 9 9 9 9 9 9 8 8 8 8 9 8 8 8 8 8 8 8 8 8 8 8 8 8 8 8 8 8 8 8 8 8
11 11 11 11 10 10 10 10 9 9 9 9 9 9 9 9 9 8 8 8 8 9 9 9 9 8 8 8 8 9 9 9 9 8 8 8 8 8 8 8 8 8 8
12 12 11 11 11 10 10 10 10 9 9 9 9 9 9 9 8 8 8 8 8 9 9 9 8 9 9 9 9 9 9 9 9 9 9 8 8 8 8 8 8 8 8
12 12 11 11 11 11 10 10 10 10 9 9 9 9 9 9 8 8 8 8 8 8 9 9 8 9 9 10 9 9 9 9 9 9 9 9 8 8 8 8 7 8 8
13 12 12 11 11 11 10 10 10 10 10 10 10 9 9 9 9 8 9 9 9 8 9 9 9 10 10 10 9 9 9 9 9 9 9 9 9 8 8 9 8 7 7
13 13 12 12 11 11 11 10 10 10 10 9 9 10 9 9 9 9 9 9 9 9 9 9 10 10 10 10 9 9 9 9 8 8 8 8 8 8 8 8 8 8 7
14 14 13 13 12 11 11 10 10 10 9 9 9 9 9 9 9 9 9 9 9 9 10 10 10 10 10 10 9 8 9 9 9 8 8 8 8 8 8 8 7 7 8
14 14 13 13 12 12 11 10 10 10 10 10 10 10 9 9 10 10 10 10 10 10 10 10 10 9 10 10 9 8 5 5 7 8 8 8 8 8 7 7 7 7 7
14 13 13 13 12 12 11 11 11 11 11 10 11 10 10 11 10 10 10 10 10 10 10 10 10 10 9 9 9 8 7 5 6 6 7 8 8 7 7 8 7 7 7
14 13 13 13 12 12 12 11 11 11 11 11 11 11 11 11 11 11 11 11 11 11 10 10 10 9 9 8 8 8 8 8 6 4 3 6 6 7 7 7 7 7 7
13 13 13 13 13 12 12 12 11 11 11 11 11 11 11 11 11 11 11 11 11 11 11 10 10 9 9 8 8 8 8 7 7 7 4 3 4 6 6 6 6 6 7
13 13 14 14 14 13 13 12 11 11 11 11 11 11 11 11 11 11 10 10 10 10 10 10 10 9 8 8 8 7 7 7 6 6 6 6 5 5 6 6 6 6 6

GFSSE_700_temp_009.txt.gz
Temp
8 9 9 8 8 9 8 8 8 8 8 9 9 8 8 9 8 8 8 8 8 8 8 8 8 9 9 9 9 8 8 8 8 9 9 9 8 8 8 8 7 8 7
9 9 9 9 8 8 9 9 8 8 9 9 8 8 8 8 8 8 8 8 8 8 8 8 9 9 9 9 9 8 8 8 8 9 9 9 8 8 8 7 8 8 7
9 9 9 9 9 9 9 9 9 9 9 8 8 8 9 8 8 8 8 8 8 8 8 8 9 9 9 9 9 9 8 8 8 9 9 8 8 8 8 7 8 7 7
9 9 9 9 9 9 9 9 9 9 9 9 9 9 8 8 9 8 8 8 8 8 8 9 9 9 9 9 9 9 8 8 8 8 9 8 7 9 9 8 8 8 8
9 9 9 9 9 9 9 9 9 9 9 9 9 8 8 8 8 8 8 8 8 8 8 8 9 9 9 9 9 9 8 8 8 8 8 8 7 9 9 8 8 8 7
9 9 9 9 9 9 9 9 9 9 9 9 9 8 8 8 8 8 8 8 8 8 8 9 9 9 9 9 9 9 8 9 8 8 8 8 8 9 9 8 8 8 8
10 9 9 9 9 9 9 9 9 9 9 9 9 8 8 8 8 8 8 8 8 8 8 9 9 9 9 9 9 9 9 9 9 8 8 8 9 9 9 8 8 8 8
10 10 10 9 9 9 9 9 9 9 9 9 9 8 8 8 8 8 9 9 9 9 9 9 9 9 9 9 9 9 9 9 9 9 8 8 8 9 9 9 8 8 8
10 10 10 10 10 10 9 10 9 9 9 9 9 9 8 8 8 8 9 9 9 9 9 9 9 8 8 8 8 8 9 9 8 7 9 8 8 9 9 9 9 8 8
10 10 11 10 10 10 10 10 10 9 9 9 9 9 8 8 8 9 9 9 9 9 9 8 9 8 8 8 8 8 8 9 8 8 8 8 8 8 9 9 9 8 8
10 10 10 10 10 10 10 10 10 9 9 9 9 9 8 8 9 8 9 9 8 9 8 9 8 8 8 8 8 8 7 7 7 8 8 8 8 8 9 8 9 9 8
9 8 9 10 10 10 10 10 10 9 9 9 9 9 8 8 8 8 8 8 9 8 8 8 8 8 8 7 7 7 6 7 7 6 8 8 8 8 8 9 8 8 8
8 8 10 10 10 10 9 10 10 9 9 9 9 9 9 8 9 8 9 10 9 8 9 9 8 8 7 8 6 6 7 7 6 6 8 7 7 8 8 8 8 8 8
8 8 10 11 11 10 10 10 7 6 7 7 9 9 9 9 8 8 9 9 8 7 7 8 8 8 8 8 8 8 7 7 7 7 7 8 8 8 8 8 8 8 8
8 8 8 11 11 11 10 9 7 7 7 6 7 9 9 8 8 8 9 9 9 8 8 7 8 8 8 7 7 9 8 8 8 8 8 8 8 8 8 8 8 8 8
8 8 8 11 11 11 11 11 10 9 9 7 6 7 9 9 9 8 8 9 9 9 9 8 8 8 8 7 7 9 9 8 9 9 8 9 8 8 8 8 7 8 8
10 9 10 12 12 11 11 10 10 10 10 7 6 7 9 9 9 9 9 9 8 9 8 9 8 8 8 5 6 9 7 7 9 9 9 7 8 8 8 8 8 8 8
12 12 12 11 12 11 11 11 10 11 8 8 7 8 9 9 9 9 9 7 8 8 9 8 8 8 8 8 8 7 8 8 9 9 9 9 8 6 8 8 7 8 8
13 13 12 12 12 12 11 11 11 10 10 9 8 9 8 9 9 9 9 9 9 9 9 9 8 9 9 10 9 8 6 5 7 5 8 8 8 7 5 9 9 8 8
13 13 13 12 12 12 11 11 11 10 10 10 9 8 10 10 10 9 9 9 9 9 9 9 9 10 10 10 9 8 8 6 7 4 5 5 8 8 6 8 8 8 8
14 14 14 13 13 12 12 11 10 10 10 9 7 8 10 10 10 10 9 10 10 9 10 10 10 10 10 9 8 5 5 8 6 5 5 7 8 8 8 8 8 8 8
14 14 14 14 14 13 12 11 10 9 8 7 6 9 10 10 10 10 10 10 10 9 11 10 10 10 9 9 8 8 5 5 6 5 7 8 7 7 8 8 7 7 8
14 14 14 14 14 13 12 11 11 10 10 8 7 10 11 11 11 11 10 10 11 10 11 10 10 10 9 8 8 8 5 6 5 5 5 7 8 8 7 7 7 7 6
14 14 14 14 13 13 12 12 12 11 11 8 7 7 11 11 11 11 11 11 11 11 11 11 10 10 10 9 9 9 8 8 7 5 5 4 5 6 7 7 7 7 6
14 14 14 14 13 13 13 12 12 11 9 7 7 8 11 11 11 11 11 10 10 10 10 10 10 10 10 9 8 7 8 8 8 7 5 4 4 4 4 6 6 6 7
14 14 14 14 13 14 14 12 12 12 12 9 10 11 11 11 11 11 11 11 10 10 10 10 10 10 10 9 8 8 6 5 4 3 4 4 4 3 3 3 5 5 6

GFSSE_700_temp_015.txt.gz
Temp
9 9 9 9 9 9 9 9 9 9 9 9 9 9 9 9 9 9 9 8 9 9 9 9 9 9 9 8 8 8 8 8 9 8 8 8 9 8 8 8 8 9 9
9 9 9 9 9 9 9 9 9 9 9 9 9 9 9 9 9 8 8 9 9 9 9 9 9 9 9 9 9 9 8 9 9 8 9 9 8 7 8 8 9 9 9
9 9 9 9 9 9 9 9 9 9 9 9 9 9 8 9 8 8 8 8 9 9 9 9 9 9 9 9 9 9 9 8 9 8 8 9 8 8 8 9 9 9 9
9 9 9 9 9 9 9 9 9 9 9 9 9 8 9 9 8 8 8 8 8 9 8 9 9 9 9 9 9 8 9 9 9 9 9 9 8 8 8 8 9 9 9
10 9 9 9 9 9 9 9 9 9 9 9 9 9 9 9 8 8 8 8 8 8 9 9 9 9 9 9 8 8 8 8 8 9 9 9 8 8 8 9 8 9 9
10 9 10 9 9 9 10 9 9 9 9 9 9 9 9 8 8 8 8 8 9 9 9 9 9 9 8 8 8 8 8 8 8 8 9 8 8 8 8 8 8 9 9
10 10 9 10 10 9 10 9 9 10 10 9 9 9 8 8 8 8 8 9 8 8 9 9 9 8 8 8 8 8 8 8 7 8 8 8 8 8 8 8 8 8 9
10 10 10 10 10 10 10 10 10 10 10 9 9 8 8 8 8 8 8 8 8 8 9 8 8 8 8 8 8 8 8 8 8 8 8 7 8 8 8 8 8 8 8
10 10 10 10 10 10 10 10 10 10 9 9 9 8 8 8 8 8 8 8 8 8 8 8 8 8 8 8 8 8 9 8 8 8 8 8 7 8 8 8 8 8 8
10 10 10 10 10 10 10 10 10 10 9 9 8 9 9 9 9 9 8 8 9 8 8 9 9 8 8 7 8 8 8 8 8 8 7 7 7 8 8 8 8 8 8
10 10 10 10 10 10 10 10 10 10 9 9 8 9 9 9 9 9 8 9 9 8 9 8 8 8 8 8 8 7 7 8 9 8 8 7 7 7 8 8 8 8 8
10 10 10 10 10 10 10 10 10 9 9 9 9 9 9 10 9 9 9 9 8 8 9 8 8 7 8 8 8 8 8 6 7 8 8 7 7 7 7 8 8 9 8
11 11 11 11 11 11 10 10 9 9 9 9 8 9 9 10 9 9 9 9 9 8 8 9 9 8 8 7 7 7 6 6 7 8 8 7 7 7 8 7 8 8 9
12 12 11 11 11 11 11 10 10 9 9 9 9 9 10 10 10 9 9 9 8 8 9 10 9 9 8 7 8 8 7 8 8 8 8 8 8 8 8 7 7 8 8
12 12 12 11 12 12 11 11 10 10 10 10 10 9 9 9 9 9 9 9 9 10 10 10 8 8 8 8 9 10 9 10 9 9 9 8 8 8 8 8 8 7 8
12 12 12 12 11 12 12 12 12 12 12 10 10 9 9 9 9 9 9 9 9 9 7 8 8 7 7 8 10 10 9 10 9 10 10 9 9 8 8 8 8 8 7
12 11 12 12 12 12 12 12 11 11 10 9 9 9 9 9 9 9 9 8 8 8 8 8 9 8 9 8 9 10 9 9 9 9 9 9 9 9 8 7 7 8 8
12 14 14 13 13 13 13 12 11 11 11 10 10 9 9 9 9 9 9 9 9 8 9 8 9 9 9 9 9 10 10 9 8 9 8 9 9 9 9 8 7 7 7
13 14 14 14 13 13 12 12 11 11 11 11 11 10 10 9 9 9 9 9 10 8 10 9 9 10 10 11 10 9 9 8 6 5 8 6 7 9 9 8 8 8 8
13 14 13 14 14 13 13 12 12 11 11 11 11 11 9 9 9 10 9 10 9 10 10 10 11 11 10 10 10 9 7 7 7 6 6 6 7 9 10 9 8 8 8
13 14 14 14 14 14 13 13 13 12 11 11 10 9 11 10 10 10 10 10 10 11 11 12 11 11 11 10 11 9 7 5 6 5 5 4 7 7 8 8 8 9 8
14 14 14 14 14 14 14 13 12 12 11 11 10 11 11 11 11 11 10 11 11 11 11 11 11 11 11 11 10 9 5 6 5 5 5 4 5 7 7 7 8 8 8
14 14 14 14 14 14 14 13 12 12 12 12 12 12 11 12 11 11 11 11 11 11 11 11 11 11 11 11 10 9 7 7 6 5 4 4 6 5 6 7 6 8 8
15 14 14 14 14 14 14 14 13 12 12 11 12 12 12 12 12 12 12 11 11 11 11 10 10 10 11 10 10 10 8 6 5 5 4 4 4 6 6 6 7 6 7
14 14 15 14 14 14 14 13 13 13 12 12 12 12 12 12 12 12 11 11 11 11 11 10 10 10 10 10 10 10 10 8 5 5 4 4 4 3 4 6 6 6 6
15 15 15 15 14 14 14 14 13 13 13 13 12 13 12 12 12 12 11 11 11 11 10 10 10 10 9 9 9 10 10 9 8 7 6 5 4 4 4 3 3 5 6

GFSSE_700_temp_021.txt.gz
Temp
9 8 8 8 8 8 8 9 8 9 8 8 8 8 8 8 8 8 8 8 8 9 9 8 8 8 8 8 8 8 8 8 8 8 8 9 8 8 8 9 9 9 9
9 9 8 8 8 8 9 9 8 8 8 8 8 8 8 8 8 8 8 8 8 8 8 9 9 9 8 8 8 8 8 8 8 8 8 8 8 8 8 9 9 9 9
9 9 8 9 8 9 9 8 8 8 8 8 8 8 8 8 8 8 8 8 8 8 8 8 9 9 9 8 8 8 8 8 8 8 8 8 9 8 8 8 8 9 9
9 9 9 9 9 9 9 8 8 8 8 8 8 8 8 8 8 8 8 8 8 8 8 8 9 9 9 9 9 8 8 9 9 9 9 8 8 8 8 8 8 8 8
9 9 9 9 9 9 9 8 8 8 8 8 8 8 8 8 8 8 8 8 8 8 8 8 9 9 9 9 9 8 8 9 9 9 9 9 8 8 7 8 8 9 8
10 9 9 9 9 9 9 8 8 8 8 8 8 8 8 8 8 8 8 8 9 9 9 9 9 9 9 9 9 8 8 8 7 8 9 9 9 8 8 8 7 8 8
10 10 9 9 9 9 9 8 8 8 8 9 8 8 8 8 8 8 9 9 9 8 8 9 9 9 9 8 8 8 9 9 8 8 9 9 9 9 8 8 8 8 8
10 9 9 9 9 9 9 9 9 9 9 8 8 8 8 8 8 8 9 9 9 9 8 9 9 9 9 8 8 8 8 8 9 8 8 9 9 9 8 8 8 8 8
9 9 9 9 9 9 9 9 9 9 9 9 8 8 8 8 8 8 8 8 8 8 8 8 9 8 9 9 8 8 8 8 8 7 8 8 9 8 8 8 8 8 8
9 9 9 10 10 10 10 9 9 9 9 9 8 8 8 8 8 8 8 8 8 8 8 8 8 8 9 9 8 7 8 8 9 7 7 8 8 9 8 8 8 8 8
9 9 9 10 10 10 10 10 10 9 9 9 9 9 8 8 8 8 8 8 8 8 8 8 8 7 8 9 8 8 7 8 8 8 8 7 7 8 9 8 8 8 8
10 10 10 10 10 10 10 10 10 9 9 9 9 9 8 8 8 8 8 8 8 8 8 8 8 7 8 8 8 9 6 8 8 7 8 8 7 8 8 8 8 8 8
10 10 10 10 10 10 10 10 10 9 9 9 9 9 8 8 8 8 8 8 8 8 8 8 8 8 8 8 8 9 8 9 8 8 8 7 8 8 8 8 8 8 8
11 11 11 11 10 10 10 10 10 9 9 9 9 9 9 8 8 8 8 8 8 9 8 8 8 9 9 8 8 8 8 9 8 9 8 8 8 8 8 8 8 8 8
11 11 11 11 11 10 10 10 10 10 9 9 9 9 9 9 9 8 8 8 8 9 9 9 8 9 9 8 8 9 9 9 9 9 9 8 8 8 8 8 8 8 8
11 11 11 11 11 10 10 10 10 10 10 10 9 9 9 9 9 9 8 8 8 8 8 8 8 9 9 9 7 8 9 9 8 9 9 8 8 8 8 8 8 8 8
12 11 11 11 11 11 11 10 10 10 10 10 10 10 9 9 10 9 9 9 8 9 8 8 9 8 7 8 9 8 8 9 9 8 9 9 8 8 8 8 8 7 7
12 12 11 11 11 11 11 11 10 10 11 10 10 10 9 9 9 9 9 9 9 9 9 9 9 9 8 8 8 8 9 7 7 8 8 8 8 8 8 8 8 7 7
12 12 12 11 11 11 11 11 10 11 11 11 10 10 9 9 9 9 9 10 9 9 9 10 10 10 10 9 9 8 8 7 6 6 7 7 8 8 8 8 8 8 7
11 12 12 12 12 11 11 11 11 11 11 11 11 10 10 9 9 9 9 9 9 10 10 10 10 11 10 10 9 9 8 6 6 5 6 6 7 8 8 7 8 8 7
12 12 12 12 12 12 12 12 12 12 11 11 11 10 10 9 9 9 10 10 10 10 10 10 10 10 10 10 9 8 8 6 7 6 6 6 6 7 7 7 8 8 8
13 13 13 13 12 12 12 12 12 11 11 11 10 10 10 9 10 10 10 10 11 10 10 10 10 9 9 10 9 9 8 7 6 7 6 6 6 7 8 7 7 7 7
14 14 14 13 13 12 12 11 12 12 12 12 11 11 10 9 10 10 10 11 10 11 10 10 10 9 9 9 9 9 9 8 7 7 6 5 6 6 6 7 7 7 7
14 14 14 14 13 13 12 12 12 12 12 11 11 10 9 10 12 11 11 11 11 10 10 10 9 9 8 8 9 9 9 9 8 8 7 7 7 7 6 6 6 6 6
15 15 14 14 13 13 13 13 13 13 12 11 11 11 11 11 12 11 11 11 11 10 10 10 10 10 9 9 9 9 9 9 8 8 8 7 6 6 6 6 5 5 5
14 14 14 14 14 13 13 13 13 13 12 12 12 12 11 12 12 12 12 11 11 10 10 10 10 10 9 9 9 9 8 8 8 8 8 7 6 7 7 7 5 5 5

GFSSE_700_temp_024.txt.gz
Temp
8 8 9 8 8 8 8 8 8 8 8 8 8 8 8 8 8 8 8 8 8 8 9 9 8 8 8 8 8 9 8 8 8 8 9 9 9 8 9 9 9 10 10
9 8 8 8 8 8 8 8 8 8 8 8 8 8 8 8 8 8 8 8 8 9 9 9 9 9 9 8 8 8 9 8 9 8 8 8 8 8 9 9 10 10 10
8 8 8 8 8 8 8 8 8 8 8 8 8 8 8 8 8 8 8 8 9 9 9 9 9 9 9 9 8 8 8 8 9 9 9 9 8 9 9 9 10 10 9
9 9 9 9 9 9 9 8 8 8 8 8 8 8 8 8 8 8 8 8 9 9 9 9 9 9 9 9 8 8 8 8 9 9 8 9 8 8 8 9 9 9 9
9 9 9 9 9 9 8 8 8 8 8 8 8 8 8 8 8 8 8 9 9 9 9 9 9 9 9 8 8 7 8 7 8 8 8 8 9 9 8 8 8 8 8
9 9 9 9 9 8 8 8 8 8 8 8 8 8 8 8 8 8 9 9 9 9 9 9 9 9 9 8 8 8 8 8 8 8 8 8 8 8 8 8 8 8 8
9 9 9 9 9 8 8 8 8 8 8 8 8 8 8 8 8 8 8 8 8 9 8 8 8 9 8 8 8 8 8 8 8 8 8 8 8 8 8 9 8 8 8
10 10 9 9 9 8 8 8 8 8 8 8 8 8 8 8 9 8 8 8 8 8 8 8 8 8 8 8 8 8 8 8 8 8 8 9 8 8 8 9 9 8 8
10 10 9 9 9 8 8 8 8 8 8 8 8 8 8 8 8 8 8 8 8 8 8 8 8 8 8 8 8 7 7 7 7 7 8 9 9 9 9 9 9 8 8
10 10 9 9 9 9 9 9 9 9 8 8 8 8 8 8 8 8 8 8 8 8 8 8 8 8 8 8 8 8 7 7 7 7 8 9 9 8 8 8 9 8 8
10 9 9 9 9 9 9 9 9 9 9 8 8 8 8 8 8 8 8 8 8 8 8 8 8 8 8 8 8 7 8 8 7 8 8 8 9 9 8 8 9 8 8
10 10 10 9 10 10 10 9 9 9 9 8 8 8 8 8 8 8 8 8 8 8 8 8 8 8 8 8 8 8 9 8 8 8 7 7 8 8 9 9 9 8 8
10 10 10 10 10 10 10 10 9 9 9 8 8 8 8 8 8 8 8 8 8 8 8 8 8 8 8 8 9 9 9 9 8 9 9 8 8 8 8 9 8 8 8
11 11 11 10 10 10 10 10 9 9 9 9 9 8 8 8 8 8 8 8 8 8 8 8 8 8 8 8 9 9 9 9 9 9 9 8 8 8 8 8 8 8 8
11 11 11 11 11 11 10 10 10 9 9 9 9 9 8 8 8 9 8 8 8 8 8 8 8 8 8 8 9 9 8 9 9 9 9 8 8 8 7 7 8 8 8
11 11 11 11 11 11 10 10 10 9 9 9 9 9 9 8 8 9 9 9 8 8 7 8 7 8 8 8 8 8 8 8 8 9 8 8 8 8 8 7 7 8 8
11 11 12 11 11 11 11 10 10 10 9 9 9 9 9 9 9 9 9 9 9 9 8 8 8 8 8 8 7 8 8 7 8 8 9 8 8 8 8 8 8 7 7
11 11 11 11 11 11 11 10 10 10 10 9 10 9 8 8 9 9 9 9 9 9 9 9 9 9 9 8 8 8 8 8 7 8 8 8 8 8 8 8 7 7 7
12 11 11 12 11 11 11 10 10 10 9 10 9 9 8 8 8 8 9 9 9 10 10 10 10 10 9 9 9 8 8 7 4 7 7 7 8 8 8 7 7 7 7
12 11 11 12 11 11 11 11 11 10 10 10 10 9 9 8 8 9 9 10 10 10 10 10 10 10 10 9 9 9 8 7 7 7 7 7 7 8 8 8 7 7 7
12 11 11 12 12 11 12 12 12 12 11 10 10 9 9 9 9 9 10 9 10 10 10 10 9 9 9 10 9 8 7 7 6 7 7 7 7 8 8 8 8 8 8
13 13 12 12 12 12 12 11 11 11 10 10 10 10 10 10 9 9 10 10 10 10 10 10 9 9 9 9 9 9 8 7 7 6 6 7 6 7 7 7 7 7 7
14 13 13 13 13 13 12 12 12 11 12 12 11 11 10 10 9 10 10 10 10 10 10 9 9 8 8 9 9 9 8 8 7 6 6 6 6 6 6 6 6 6 7
14 14 14 13 13 13 12 12 12 12 11 11 11 10 10 10 10 10 11 11 10 10 10 9 9 9 9 9 9 9 9 9 8 7 6 6 6 5 5 6 6 6 5
14 14 14 13 13 13 13 12 12 12 12 11 11 11 11 11 11 11 11 11 10 10 10 10 9 9 9 9 9 9 9 8 8 8 7 6 6 5 6 5 4 5 4
14 14 14 14 13 13 13 13 13 13 12 12 11 11 11 11 11 11 11 11 11 10 10 10 10 9 9 9 9 9 9 8 8 8 8 8 7 6 6 6 5 4 4

GFSSE_700_temp_030.txt.gz
Temp
8 8 8 8 8 8 8 8 8 8 8 8 8 8 8 8 9 9 9 9 9 9 8 8 8 8 8 8 8 8 8 8 8 9 8 8 8 9 9 9 9 10 10
8 8 8 8 8 8 8 8 8 8 8 8 8 8 8 9 9 9 9 9 9 9 8 8 8 8 8 8 8 8 9 8 8 8 8 8 8 8 9 9 9 10 10
9 8 8 8 8 8 8 8 8 8 8 8 8 8 8 9 9 9 9 9 9 9 8 8 8 8 8 8 8 9 8 8 8 8 8 8 8 8 9 9 9 10 10
9 8 8 8 8 8 8 8 8 8 8 8 8 8 8 9 9 9 9 9 8 8 8 8 8 8 8 8 8 8 9 8 7 7 7 8 8 8 9 9 9 10 9
8 8 8 8 8 8 8 8 8 8 8 8 8 8 8 8 8 9 9 9 8 8 8 8 8 8 8 8 8 8 8 8 8 7 7 8 8 8 9 8 9 9 9
9 8 9 9 9 8 8 8 8 8 8 8 8 8 8 8 8 8 8 8 8 8 8 8 8 8 8 8 8 8 8 8 8 8 7 8 8 8 8 8 9 8 8
9 9 9 9 9 8 8 8 8 8 8 8 8 8 8 8 8 8 8 8 8 8 8 8 8 8 8 8 8 8 8 7 8 8 8 7 8 8 8 8 8 8 8
9 9 9 9 9 8 8 8 8 8 8 8 8 8 8 8 8 8 8 8 8 8 8 8 8 8 8 7 7 8 8 8 8 8 8 7 8 8 8 8 8 8 8
9 9 9 9 9 8 8 8 8 8 8 8 8 8 8 8 8 8 8 8 8 8 8 8 8 8 8 7 7 7 7 6 7 8 8 8 8 8 8 8 8 8 8
10 9 9 9 9 8 8 8 8 8 8 8 8 8 8 8 8 8 8 8 8 8 8 8 8 8 8 8 7 7 7 7 7 8 8 8 8 8 8 8 8 8 8
10 10 9 9 9 9 8 8 8 8 8 8 8 8 8 8 8 8 8 8 8 8 8 8 8 8 8 7 8 7 7 6 7 7 8 8 8 8 8 8 8 8 8
10 10 9 9 9 9 8 9 8 8 8 8 8 8 8 8 8 8 8 8 8 8 8 8 8 8 6 5 6 7 5 8 7 7 8 8 8 8 8 8 8 8 8
10 10 10 9 9 9 9 9 8 8 8 8 8 8 8 8 8 8 8 8 8 8 8 8 7 7 7 5 5 5 4 5 5 7 8 8 8 8 8 8 8 8 8
10 10 10 10 9 9 9 9 9 9 9 9 9 9 9 8 8 8 8 8 8 8 8 8 7 7 7 7 6 5 4 5 4 5 8 8 8 8 8 9 8 8 8
10 10 10 10 10 10 9 9 9 9 9 9 9 9 9 9 9 8 8 8 8 8 8 8 7 7 8 7 7 5 4 5 5 4 8 8 7 7 8 8 8 9 8
10 10 10 10 10 10 10 10 9 9 9 9 9 9 9 9 9 9 8 8 8 9 9 8 8 7 8 7 6 6 4 4 7 7 5 8 8 8 8 8 8 8 8
10 10 10 10 10 10 10 10 10 9 9 9 9 9 9 9 9 9 8 8 9 9 9 9 8 8 6 7 7 6 4 6 6 8 4 4 8 8 8 8 8 8 8
10 11 10 10 10 10 10 10 10 10 10 9 9 9 9 9 9 9 8 8 9 9 9 9 8 8 7 8 8 7 4 5 6 6 4 6 7 7 8 8 8 8 8
11 11 11 11 11 10 10 10 10 10 10 10 9 9 9 9 9 9 9 9 9 10 9 9 9 9 9 8 6 4 5 5 6 4 7 8 7 6 5 8 8 8 8
11 11 11 11 11 11 10 10 10 10 10 10 10 10 9 9 9 9 9 8 9 10 10 9 9 9 9 9 8 8 5 6 4 4 6 5 7 8 6 8 8 8 8
12 11 11 11 11 11 11 11 11 11 11 10 10 10 10 9 9 9 9 9 10 10 9 9 9 9 9 9 9 8 7 7 6 4 4 4 6 5 8 8 8 7 9
12 12 12 12 12 11 11 11 11 11 11 10 10 10 10 10 10 9 9 9 10 10 9 9 8 8 9 9 8 5 5 5 5 5 5 5 7 6 8 8 8 8 8
13 13 13 12 12 12 12 11 11 11 11 11 11 11 10 10 10 10 10 10 10 10 9 9 9 9 9 9 9 7 5 6 5 7 7 5 7 6 7 7 7 7 7
14 13 13 13 12 12 12 12 12 12 12 11 11 10 10 10 10 10 10 10 10 10 10 9 9 9 9 9 9 9 9 8 6 6 8 8 7 7 7 7 7 7 7
13 13 13 13 13 12 12 13 12 12 12 11 11 11 11 10 10 10 10 11 10 10 10 10 10 9 9 9 9 9 9 9 8 7 6 5 8 7 7 7 6 6 7
13 13 13 13 13 13 13 13 13 12 12 12 11 11 11 11 11 11 11 11 10 10 10 10 10 10 10 10 9 9 9 9 9 8 8 7 6 5 7 7 7 6 6

GFSSE_700_temp_033.txt.gz
Temp
9 9 9 8 8 9 9 9 9 9 9 8 8 8 9 9 9 9 9 8 8 8 8 8 8 8 8 8 8 9 8 8 9 9 8 8 8 9 9 9 9 10 10
9 8 8 8 8 9 9 9 9 9 8 8 8 8 9 9 9 9 9 9 9 8 8 8 8 8 8 9 9 9 8 8 8 8 8 8 8 9 9 9 9 10 10
10 8 8 8 8 9 9 9 9 9 8 8 8 8 9 9 9 9 9 9 9 9 8 8 8 8 8 9 9 9 9 8 8 7 7 7 8 9 9 9 9 10 10
9 9 8 8 9 9 9 8 8 8 8 8 8 9 9 9 9 9 9 9 9 9 9 8 8 8 8 8 8 9 9 8 8 7 7 7 8 8 9 9 9 9 9
9 8 8 8 9 9 8 8 8 8 8 8 8 9 9 9 9 8 9 8 9 9 8 8 8 8 8 8 7 8 8 8 8 7 7 8 6 8 8 9 9 9 9
9 8 9 9 9 9 8 8 8 8 8 8 8 8 9 9 9 9 8 8 8 8 8 8 8 8 8 8 8 8 8 8 9 8 7 8 8 8 8 8 8 8 8
9 9 9 9 9 9 9 8 8 8 8 8 8 8 9 8 8 8 8 8 8 8 8 8 8 8 8 8 8 8 8 8 8 8 7 7 8 8 8 8 8 8 8
9 9 9 9 9 9 9 8 8 8 8 8 8 9 8 8 8 8 8 8 8 8 8 8 8 8 8 8 8 8 8 8 9 8 8 8 8 8 9 9 8 8 8
8 9 9 9 9 9 9 8 8 8 8 8 8 9 9 9 8 8 8 8 8 8 8 8 8 8 8 8 8 7 7 8 8 8 8 8 8 8 9 8 8 8 8
7 9 9 9 9 9 9 9 8 8 8 8 8 8 8 8 8 8 8 8 8 8 8 8 8 8 8 8 8 7 7 7 7 8 8 8 8 8 8 8 8 8 8
8 9 9 9 9 9 9 9 8 8 8 8 8 9 9 8 8 8 8 8 8 8 8 8 8 7 7 7 7 7 8 6 7 7 8 8 8 8 8 8 8 8 8
7 7 7 9 9 9 9 9 8 8 8 8 8 9 9 9 8 8 8 8 8 8 8 8 7 8 7 6 6 7 8 6 6 6 7 8 8 8 8 8 8 8 8
7 7 7 7 10 9 8 9 8 8 8 8 8 9 9 9 9 9 9 9 9 8 8 7 7 8 7 6 6 6 6 6 6 6 7 8 8 9 8 8 8 8 8
7 7 7 7 10 9 8 9 8 6 6 6 8 9 9 9 9 8 9 8 8 8 8 8 7 8 8 6 6 5 6 6 6 6 7 8 8 8 8 8 8 8 8
7 7 7 9 10 10 10 9 6 6 7 6 9 9 9 9 9 8 9 9 8 8 9 8 8 8 8 7 7 6 6 6 5 7 8 8 8 8 8 8 9 9 9
8 7 7 10 10 10 10 10 10 9 7 8 8 9 9 9 9 8 8 8 8 8 9 8 8 8 7 7 7 7 6 5 6 6 7 8 8 8 8 8 9 9 9
8 7 7 10 10 10 10 10 10 10 9 9 9 9 9 9 9 8 8 7 7 8 8 9 9 9 7 6 7 6 6 6 6 7 7 7 8 8 8 8 8 8 8
8 9 11 10 10 10 10 10 10 10 10 9 9 9 9 9 9 9 8 8 9 8 9 7 8 7 7 6 5 5 5 6 6 7 6 7 8 7 8 8 8 8 8
10 11 11 11 11 11 11 10 10 10 10 10 9 9 9 9 9 9 9 9 9 9 7 8 7 7 6 5 6 5 5 6 6 6 7 7 6 7 7 8 8 8 8
11 11 11 11 11 11 11 11 11 11 10 10 10 9 10 10 9 10 9 9 9 8 8 9 8 9 8 8 6 6 6 5 6 5 6 6 5 7 6 8 8 7 7
11 11 12 11 11 11 11 11 11 11 11 10 10 10 10 10 10 10 9 9 9 9 9 8 9 8 6 9 7 5 5 6 5 5 6 6 6 7 7 8 6 8 7
12 12 12 12 12 12 11 11 11 11 11 11 10 10 10 10 10 10 10 9 9 9 9 8 8 7 9 9 6 6 6 6 5 6 5 5 5 5 7 8 7 8 6
13 13 13 12 12 12 12 11 11 11 11 11 11 11 11 11 10 10 10 10 10 10 9 9 10 10 7 9 9 7 7 7 6 7 6 5 7 5 8 7 8 8 7
14 13 13 13 12 12 12 12 12 12 12 11 11 11 11 11 11 11 10 10 11 10 10 9 10 10 9 9 9 9 8 7 6 7 6 6 7 7 7 5 7 7 8
14 14 13 13 13 13 13 12 12 12 12 12 11 11 11 11 11 11 11 11 11 11 10 10 10 10 10 10 9 9 9 8 7 7 7 7 7 6 6 6 5 5 7
14 14 13 13 13 13 13 12 13 12 12 12 12 12 12 12 11 11 11 11 11 11 10 10 10 10 10 10 10 10 10 9 8 9 7 7 6 6 5 5 8 7 6

GFSSE_700_temp_036.txt.gz
Temp
9 9 9 9 9 9 9 9 9 9 9 9 9 9 9 9 9 9 9 9 9 9 9 9 8 8 8 9 9 8 8 8 8 8 8 8 8 9 9 9 9 10 10
10 9 9 9 9 9 9 9 9 9 9 9 9 9 9 9 9 9 9 9 9 9 9 9 8 8 9 9 9 8 9 8 8 8 8 8 8 9 9 9 9 10 9
9 9 9 9 9 9 9 9 9 9 9 9 9 9 9 9 9 9 9 9 9 9 9 9 8 8 8 9 9 9 9 8 8 7 8 9 8 9 9 9 9 9 9
9 9 9 9 9 9 9 9 9 8 8 9 9 9 9 9 9 9 9 9 9 9 9 8 8 8 8 8 8 9 8 8 7 8 8 8 8 8 9 9 9 9 9
9 9 9 9 9 9 9 9 9 8 9 9 9 9 9 9 9 9 9 9 9 9 9 9 8 8 8 8 8 8 8 8 8 8 8 8 8 8 8 9 9 9 9
9 9 9 9 9 9 9 9 9 8 8 9 9 9 9 9 9 9 9 9 9 9 9 9 9 9 9 8 8 8 8 8 8 7 8 8 8 8 8 9 9 9 9
10 9 9 9 9 9 9 9 8 8 8 8 9 9 9 9 9 9 9 9 9 9 9 9 9 9 8 8 8 9 8 9 7 8 8 8 8 8 8 9 9 9 8
10 9 9 9 9 9 9 9 8 8 8 9 9 9 9 9 9 9 9 9 9 9 9 8 8 9 8 8 8 8 8 8 8 8 8 8 8 8 9 9 9 8 8
9 9 9 9 9 9 9 8 8 8 9 9 9 9 9 8 9 9 9 9 9 9 8 8 8 8 8 8 7 7 8 8 9 8 8 8 8 9 9 9 9 9 9
9 9 9 9 9 9 9 8 8 8 9 9 8 8 8 9 8 8 9 9 8 8 8 8 8 7 7 7 8 8 8 8 9 8 8 8 8 9 9 8 9 9 9
8 9 9 9 9 9 9 8 8 8 9 8 8 8 9 9 8 8 8 9 8 8 9 8 8 8 6 6 6 7 8 8 7 7 8 8 8 9 9 9 9 9 9
8 9 9 10 9 9 9 9 9 9 9 8 9 8 9 9 8 8 8 8 8 9 8 8 8 8 8 6 6 6 7 8 8 7 8 8 9 9 9 9 9 9 8
8 9 10 10 10 9 9 9 9 9 9 9 9 7 8 8 8 7 9 8 8 8 8 8 8 8 8 6 7 6 6 7 7 7 7 8 9 9 9 9 9 9 8
7 7 8 10 10 9 9 9 9 9 9 8 8 8 8 7 9 8 9 10 8 9 8 8 9 8 7 6 6 6 6 7 6 6 7 7 8 9 9 9 8 8 8
8 8 7 10 10 10 9 8 9 7 7 7 8 9 8 9 10 8 9 8 8 8 8 10 9 8 8 7 7 6 6 6 6 7 7 8 7 8 8 8 8 8 8
8 8 8 11 10 10 10 9 8 8 7 8 8 9 9 8 8 8 8 8 8 8 8 9 8 8 8 8 7 6 6 6 6 6 6 7 7 7 7 7 8 8 8
8 8 8 11 10 10 10 10 10 9 9 8 8 9 8 9 9 9 9 9 9 10 9 9 8 8 8 7 7 6 6 6 7 7 6 7 6 7 7 7 7 8 8
9 8 10 11 11 11 11 10 10 10 10 10 9 10 9 9 9 9 9 10 9 8 9 8 9 8 7 6 6 6 6 6 7 7 7 7 7 6 8 7 7 7 7
9 9 11 11 12 11 11 11 10 10 10 10 10 10 10 10 10 10 9 9 9 9 11 9 9 8 7 6 7 6 6 6 6 5 6 6 7 7 7 8 8 8 8
9 11 11 11 12 11 11 11 11 11 10 10 10 10 10 10 10 10 10 10 10 9 9 8 8 8 8 6 7 6 5 6 6 6 6 7 7 7 7 8 9 8 7
10 12 12 12 12 12 11 11 11 11 11 11 10 10 11 11 11 10 11 9 10 10 9 9 8 8 8 8 7 7 7 7 6 6 6 6 6 6 6 8 9 9 9
13 13 13 12 12 12 12 12 11 11 11 11 10 11 11 11 11 11 10 10 10 9 9 9 9 9 9 8 7 6 6 7 7 6 6 6 5 6 7 8 9 9 9
13 13 13 13 13 12 12 12 11 11 11 11 11 11 11 11 11 11 10 10 10 10 9 9 10 10 10 8 8 7 6 7 7 7 7 7 6 8 7 8 8 9 9
14 14 13 13 13 13 12 12 12 12 12 12 11 11 11 11 11 12 11 11 11 11 10 10 10 10 10 9 8 8 7 8 8 7 6 6 6 6 8 9 9 8 9
14 14 14 13 13 13 12 12 12 12 12 12 12 12 12 12 12 12 11 11 11 11 10 10 10 10 10 10 9 9 8 8 7 7 6 6 6 7 7 6 8 8 8
12 14 14 14 13 13 13 13 13 12 12 12 12 12 12 13 12 12 12 11 11 11 11 10 10 10 10 10 11 10 9 8 7 7 7 7 7 7 7 7 7 7 8

GFSSE_700_temp_042.txt.gz
Temp
9 9 9 9 9 9 9 9 9 9 9 9 9 9 9 9 9 9 9 8 8 8 8 8 9 9 9 8 8 8 8 8 8 8 8 9 9 9 9 9 10 10 10
9 9 9 9 9 9 9 9 9 9 9 9 9 9 9 9 9 9 9 8 8 8 8 8 8 9 8 8 8 9 8 8 8 8 8 9 9 9 9 9 9 9 9
10 9 9 9 10 10 9 9 9 9 9 9 10 9 10 9 9 9 9 9 9 9 8 8 8 8 8 9 8 8 8 8 8 8 8 8 9 9 9 9 9 9 9
10 9 9 9 9 10 9 9 9 9 9 9 10 10 10 9 9 9 9 9 9 9 8 8 8 8 8 8 8 8 8 7 8 8 8 9 9 9 9 9 9 9 9
10 9 10 9 10 10 9 9 9 9 9 9 9 9 9 9 9 9 9 9 9 9 8 8 8 8 8 8 8 8 8 7 8 8 8 8 8 8 9 9 9 9 9
9 9 9 9 10 9 9 9 9 9 9 9 9 9 9 9 9 9 9 9 9 9 9 9 9 8 8 8 8 8 8 8 8 8 8 8 8 9 9 9 9 9 9
9 9 9 9 9 9 9 9 9 9 9 9 9 9 9 9 9 9 9 9 8 9 9 9 9 8 8 9 8 8 7 8 8 8 8 8 8 8 9 9 9 9 8
9 9 9 9 9 9 9 9 9 9 9 9 9 9 9 9 9 9 9 9 9 9 9 9 8 8 8 8 8 8 8 8 8 8 8 8 8 9 8 9 9 9 9
9 9 10 10 9 9 9 9 9 9 9 9 9 9 9 9 9 9 9 8 8 8 8 8 8 8 8 8 8 8 7 8 8 8 8 8 9 9 9 9 9 9 9
10 10 10 9 9 9 9 9 9 9 9 9 9 9 9 10 10 9 9 8 8 8 7 7 7 7 7 8 7 7 8 8 8 7 8 8 8 8 9 9 9 9 9
10 10 10 9 9 9 9 9 9 9 9 9 9 9 9 9 10 10 9 8 8 7 7 7 7 6 7 8 8 7 7 8 8 8 8 8 8 9 9 9 9 9 9
10 10 10 9 9 9 9 9 9 9 9 9 9 9 9 9 10 10 9 8 8 8 7 7 7 7 7 7 8 7 7 8 9 8 8 8 9 9 9 9 9 9 9
10 10 10 9 9 9 9 9 9 9 9 9 9 9 8 9 9 10 9 8 8 7 7 7 8 7 7 7 6 6 6 7 7 8 8 9 9 9 9 9 9 9 8
10 10 10 9 9 9 9 9 9 9 9 9 9 9 8 9 9 9 9 8 7 8 8 8 7 7 7 7 6 6 6 6 7 8 7 8 9 9 9 9 9 9 8
10 10 10 10 9 9 9 10 9 9 9 9 8 8 9 9 9 9 9 9 8 7 8 8 7 6 6 7 6 6 6 6 6 7 7 8 8 8 9 9 8 8 8
10 10 10 10 9 9 9 10 10 9 10 10 9 8 8 9 10 10 10 9 9 8 8 7 6 6 6 6 6 5 6 6 6 7 8 8 8 8 8 8 8 8 8
10 10 10 10 9 10 10 10 10 10 10 10 10 9 9 9 9 9 9 9 9 9 8 7 7 7 7 6 6 5 6 6 6 6 6 8 8 7 7 7 7 8 8
10 10 10 10 10 10 10 10 10 11 11 11 10 10 9 10 10 9 9 9 9 9 9 8 7 6 6 6 5 6 6 6 5 6 6 7 7 6 7 7 7 8 8
11 11 11 11 11 11 10 10 10 11 11 11 11 11 10 10 9 9 8 9 9 9 8 8 6 6 6 6 6 5 5 5 6 6 6 6 7 7 7 7 8 8 8
10 12 11 11 11 11 10 10 10 10 11 11 11 11 10 10 9 10 9 9 9 9 8 7 7 7 6 6 5 5 5 5 6 6 5 6 7 7 7 8 8 8 8
10 11 11 11 11 11 11 10 10 11 11 11 10 10 10 10 10 10 9 8 9 9 9 8 8 6 7 6 5 5 5 6 6 6 6 7 8 7 8 8 8 8 8
11 11 11 12 11 11 11 11 11 11 11 11 11 11 10 10 10 10 10 9 9 9 9 9 9 9 8 7 6 7 7 6 6 6 6 7 7 7 7 7 8 8 8
12 13 13 12 12 11 11 11 11 11 11 11 11 11 11 10 10 10 10 9 9 9 10 10 9 9 8 8 7 7 7 7 6 7 6 7 6 7 7 7 7 8 8
12 12 12 12 12 11 11 11 11 12 12 12 11 11 11 10 10 10 10 10 9 10 10 10 9 9 9 9 9 8 7 7 7 7 7 7 7 7 7 7 7 8 8
12 12 13 12 12 12 12 11 12 12 12 11 11 11 11 11 11 11 11 11 10 10 10 10 10 10 10 10 10 10 9 8 7 6 7 7 8 7 7 8 8 8 8
13 13 12 12 12 12 12 12 12 12 12 12 12 12 12 12 11 11 11 11 11 10 10 10 10 11 11 10 11 10 10 9 9 8 8 8 8 9 8 9 9 8 7

GFSSE_700_temp_045.txt.gz
Temp
9 9 8 9 9 9 9 9 8 8 9 9 9 9 9 8 8 8 8 8 8 8 8 9 9 9 8 9 9 8 8 8 8 8 9 9 9 9 9 9 10 10 10
9 9 8 8 8 8 8 8 8 8 8 9 9 9 9 9 9 8 8 8 8 8 8 8 9 9 9 9 9 8 9 8 8 9 9 9 9 9 9 9 9 9 9
9 9 8 8 9 8 8 8 8 8 9 9 9 9 9 9 8 8 8 8 8 8 8 8 8 8 8 8 8 8 8 8 8 8 8 9 9 9 9 9 9 9 9
9 9 9 9 9 9 9 8 8 9 9 9 9 9 9 9 9 9 8 8 8 8 8 8 8 8 8 8 8 8 8 8 8 8 8 9 9 9 9 9 9 9 9
9 9 9 9 9 9 9 8 8 9 9 9 9 9 9 9 9 8 8 8 8 8 8 8 8 8 8 8 8 7 8 8 8 8 8 8 8 9 9 9 9 9 9
9 9 9 9 9 9 9 8 9 9 9 9 9 9 9 9 9 9 9 9 9 8 8 8 8 8 8 8 7 8 8 8 8 8 8 8 8 9 9 9 9 9 9
9 9 9 9 9 9 9 9 9 9 9 9 9 9 9 9 9 9 9 9 9 9 9 8 8 8 8 8 8 8 8 8 8 8 8 8 9 9 9 9 9 9 9
10 9 9 9 9 9 9 9 9 9 9 9 9 9 8 8 9 9 9 9 9 9 9 8 7 8 8 8 8 8 8 8 8 8 8 8 9 9 9 8 9 9 8
9 9 9 9 9 9 9 9 9 9 9 9 9 9 9 9 9 9 9 9 9 9 8 8 7 7 8 8 8 7 8 8 8 8 9 9 8 8 8 8 9 9 8
9 9 9 9 9 9 9 9 9 9 9 9 9 9 9 9 9 9 9 8 8 8 8 8 8 7 7 8 8 8 8 8 8 8 8 8 8 8 8 8 9 8 8
9 9 9 9 9 9 9 9 9 9 9 9 9 9 9 9 9 9 9 8 8 8 7 7 8 7 7 7 7 7 8 8 8 8 8 8 8 8 8 8 8 8 8
10 10 9 9 9 9 9 9 9 9 9 9 9 8 8 8 8 9 9 9 8 8 7 7 7 7 7 7 7 7 7 8 8 8 8 8 8 8 8 8 8 8 8
10 10 9 9 9 9 9 9 9 9 9 9 9 9 8 8 8 8 8 8 7 7 7 7 7 7 5 6 6 7 7 7 8 8 8 8 8 8 8 8 8 8 8
10 10 9 9 9 9 9 9 9 9 8 8 9 9 8 8 8 8 8 8 8 8 7 7 7 6 6 5 5 6 6 7 8 8 8 8 8 8 8 8 8 8 8
10 10 10 9 9 9 9 9 9 8 8 8 9 9 9 8 8 8 8 8 8 8 8 7 7 6 6 5 5 6 6 6 7 7 7 7 8 8 8 8 8 8 8
10 10 10 9 9 9 9 9 9 9 9 9 9 9 8 8 8 8 9 8 9 9 8 7 7 6 6 6 5 6 6 6 6 7 7 7 7 7 8 8 8 8 8
11 10 10 9 9 9 9 9 9 9 9 9 9 9 9 8 8 8 8 9 9 8 8 7 7 7 6 6 5 6 6 5 6 7 7 7 7 7 7 8 8 8 8
11 11 10 10 9 9 9 9 10 9 10 10 10 9 9 9 9 9 8 9 9 8 8 7 7 6 6 6 5 6 6 6 6 6 6 7 7 8 7 8 8 8 8
11 11 10 10 10 10 9 9 9 10 9 10 10 10 10 9 9 9 9 8 9 8 7 7 6 6 5 6 6 6 5 5 6 5 6 6 7 7 8 8 8 8 8
11 11 10 10 10 10 9 9 9 10 10 10 10 11 10 10 10 10 9 8 8 8 8 7 6 6 5 5 5 5 5 5 5 5 5 6 6 7 8 9 9 8 8
10 11 11 10 10 10 10 10 10 10 11 11 10 10 10 10 10 10 9 9 9 9 9 8 7 7 6 5 5 5 5 5 6 5 5 6 7 7 8 9 9 9 9
11 10 11 11 10 11 10 11 10 10 11 10 10 10 10 11 11 10 9 9 9 9 9 9 9 8 7 6 5 6 6 6 6 6 5 5 6 7 7 8 8 8 9
14 12 11 11 11 11 11 10 10 10 10 11 11 11 10 11 10 10 10 9 9 9 9 9 9 9 7 8 8 7 7 6 6 6 6 6 7 6 7 8 8 8 8
14 13 12 12 11 11 11 11 11 11 11 11 11 10 10 10 11 10 10 10 9 9 9 9 10 9 8 7 8 7 7 7 6 7 7 7 7 7 8 8 8 8 8
14 13 12 12 11 11 11 11 11 11 11 11 10 10 11 10 11 11 11 10 10 10 9 10 10 9 9 8 8 8 8 8 8 8 8 8 8 8 8 8 8 8 8
14 13 12 12 11 11 11 11 11 11 11 11 10 11 11 11 11 11 11 11 10 10 10 10 10 10 10 9 9 9 9 9 9 9 9 9 9 9 9 9 9 8 8

GFSSE_700_temp_048.txt.gz
Temp
9 9 9 9 9 9 9 9 9 9 9 9 9 9 9 9 8 8 8 8 8 8 9 9 9 9 9 9 9 9 8 8 9 9 9 9 10 10 10 10 10 10 10
9 9 9 9 9 9 9 9 9 9 9 9 9 9 9 8 8 8 8 8 8 8 9 9 9 9 9 9 9 9 9 9 8 9 9 9 10 10 10 10 10 10 9
9 9 9 9 9 9 9 9 9 9 9 9 9 9 9 8 8 8 8 8 8 8 9 8 8 9 9 8 9 8 8 9 9 9 9 9 10 10 10 9 9 9 9
9 9 9 9 9 9 8 8 9 9 9 9 9 8 9 8 8 8 8 8 8 8 8 8 8 8 8 8 8 8 8 8 8 9 9 9 9 9 9 9 9 9 9
9 9 9 9 9 9 8 8 8 9 9 9 9 9 8 8 8 8 8 8 8 8 8 8 9 8 8 8 8 8 8 8 8 8 9 9 9 9 9 9 9 9 8
9 9 9 9 9 8 8 8 9 9 9 9 9 9 8 9 9 8 8 8 9 9 9 8 8 8 8 8 8 8 8 8 8 9 9 9 9 9 9 9 9 8 8
9 9 9 9 9 8 8 8 9 9 9 9 9 9 9 8 8 8 8 8 8 9 8 8 8 8 8 8 8 8 8 8 8 8 8 8 9 9 9 8 8 8 8
9 9 9 9 9 8 8 8 9 9 9 9 9 9 9 9 9 9 8 9 9 9 8 7 8 8 8 7 7 7 8 8 8 8 8 8 8 8 8 8 8 8 8
9 9 9 9 9 8 8 9 9 9 9 8 8 9 9 9 9 9 9 9 9 8 8 8 8 8 8 7 7 7 8 8 8 8 8 8 8 8 8 8 8 8 8
9 9 9 9 8 9 9 9 9 9 8 8 8 8 9 8 9 9 8 8 9 8 8 8 7 8 8 8 7 7 8 8 8 8 8 8 8 8 8 8 8 8 8
9 9 9 9 9 9 9 9 9 8 8 8 8 8 8 8 8 8 8 8 8 8 7 7 7 7 7 7 7 8 8 8 8 9 9 8 8 9 8 8 8 8 8
9 9 9 9 9 9 9 9 8 8 8 8 8 8 8 8 8 8 7 7 7 7 8 7 7 7 7 7 7 7 7 8 8 8 8 8 9 8 8 8 8 8 8
9 10 10 9 9 9 9 9 9 9 8 8 9 8 8 8 8 7 7 7 7 7 7 7 7 7 6 5 6 7 7 7 8 8 8 8 9 9 8 8 8 8 8
10 10 9 9 9 9 9 8 9 8 8 9 9 8 8 8 8 7 7 7 7 7 7 7 7 6 6 5 5 6 7 7 7 8 8 9 9 9 8 8 8 8 8
10 10 10 9 9 9 9 9 9 8 8 9 8 9 8 7 6 6 7 7 7 7 7 7 7 6 5 5 5 6 6 7 7 8 8 8 8 8 8 9 8 8 8
10 10 10 9 9 9 9 9 8 8 9 9 9 9 8 8 7 7 7 7 8 8 7 7 7 6 5 5 6 6 6 6 7 7 7 8 8 8 8 9 8 8 8
10 10 10 10 9 9 9 9 9 8 9 9 9 9 8 8 8 7 7 8 8 8 8 8 7 7 5 5 5 6 6 6 7 7 7 8 8 8 8 8 8 8 8
10 10 10 10 9 9 9 9 9 9 9 9 9 9 9 8 8 8 8 8 8 7 7 7 7 6 5 5 5 5 5 6 6 6 7 8 8 8 8 8 8 8 8
11 10 10 10 10 9 9 9 9 9 9 9 9 9 9 9 9 8 8 8 8 7 6 6 6 5 5 5 5 5 5 6 5 6 7 7 8 8 8 8 8 8 8
11 10 10 10 10 10 9 9 9 9 9 9 9 10 10 9 9 9 8 8 8 7 6 6 6 5 5 5 5 5 5 5 5 6 7 7 8 8 8 9 8 8 8
11 11 10 10 10 10 10 10 9 9 9 9 10 9 9 10 10 9 9 8 8 7 8 7 6 5 5 5 5 5 5 6 5 6 6 7 8 8 8 9 9 9 9
11 11 11 10 10 10 10 10 10 9 9 9 10 9 9 10 10 10 9 8 8 8 8 8 7 6 6 6 5 6 6 6 5 6 7 7 7 7 8 9 9 9 9
11 11 11 11 11 11 10 10 10 10 10 10 10 10 10 9 10 10 10 9 9 9 8 8 8 8 7 6 7 7 6 6 6 6 7 8 8 8 8 8 9 9 9
12 11 11 11 12 11 10 10 10 10 10 10 10 10 10 10 10 10 10 9 9 9 9 9 9 8 7 7 7 7 7 6 6 7 7 8 8 8 9 9 9 9 8
12 12 11 11 11 11 11 10 10 11 10 10 10 10 10 10 10 10 10 10 9 9 9 9 9 9 8 8 7 7 7 7 7 7 8 8 8 9 9 9 9 9 9
13 12 11 11 12 11 11 11 11 11 11 10 10 10 10 10 10 10 10 10 10 10 9 9 10 10 9 9 9 8 8 8 8 8 8 8 9 9 10 10 10 10 9